Regional Weather Roundup
Issued by NWS

Home | Current Version | Previous Version | Text Only | Print | Product List | Glossary Off
Versions: 1 2 3 4 5 6 7 8 9 10 11 12 13 14 15 16 17 18 19 20 21 22 23 24 25 26 27 28 29 30 31 32 33 34 35 36 37 38 39 40 41 42 43 44 45 46 47 48 49

000
ASUS45 KBOU 280507
RWRCO

WEATHER ROUNDUP FOR COLORADO
NATIONAL WEATHER SERVICE DENVER/BOULDER CO
1000 PM MST SAT DEC 27 2014

NOTE: "FAIR" INDICATES FEW OR NO CLOUDS BELOW 12000 FEET WITH NO
SIGNIFICANT WEATHER AND/OR OBSTRUCTIONS TO VISIBILITY.

COZ001>005-013-030-031-280600-
...NORTHWEST COLORADO...

CITY           SKY/WX    TMP DP  RH WIND       PRES   REMARKS
CRAIG          CLOUDY     5   1  83 E3        30.22F
HAYDEN         MOCLDY     3  -2  78 E10       30.20S WCI -12
MEEKER         CLOUDY    11   4  73 CALM      30.22F
MOUNT WERNER   NOT AVBL
STEAMBOAT SPGS MOCLDY    -2  -5  87 CALM      30.20S
WALDEN         MOCLDY    10   0  61 S17       30.06S WCI  -7
$$

COZ006>008-011-280600-
...WEST CENTRAL VALLEYS...

CITY           SKY/WX    TMP DP  RH WIND       PRES   REMARKS
GRAND JUNCTION MOCLDY    13   9  84 E3        30.30F
MONTROSE       PTCLDY    14   8  77 S8        30.31S WCI   3
EAGLE          PTCLDY     7   1  78 E8        30.26F WCI  -6
RIFLE          MOCLDY    13   6  74 CALM      30.29F
DELTA          PTCLDY    20  10  66 NE8       30.32S WCI  10
NUCLA          PTCLDY    16   9  73 E10       30.31F WCI   3
$$

COZ017>023-064>068-280600-
...SOUTHWEST COLORADO...

CITY           SKY/WX    TMP DP  RH WIND       PRES   REMARKS
DURANGO        MOCLDY     7   4  87 CALM      30.25F
CORTEZ         CLEAR     11   6  81 NE8       30.29S WCI  -1
PAGOSA SPRINGS CLOUDY    14  12  92 CALM      30.22S
TELLURIDE      CLEAR      6   1  79 E5        30.19S WCI  -2
WOLF CREEK PAS   N/A      1   0  92 MISG      30.06F
$$

COZ009-010-012-014-032>034-037-058>063-280600-
...CENTRAL COLORADO...

CITY           SKY/WX    TMP DP  RH WIND       PRES   REMARKS
ASPEN          PTCLDY     1  -5  75 SW7       30.17F WCI -12
BUENA VISTA    PTCLDY     2  -3  77 CALM      30.11R
COPPER MTN     PTCLDY     5  -4  66 W18       30.00S WCI -15
BERTHOUD PASS  FAIR      -4  -9  77 MISG      29.89S HAZE
COTTONWOOD PAS PTCLDY    14  -6  41 S5        30.03R WCI   6
GUNNISON       PTCLDY    -9 -29  37 CALM      30.26S
KREMMLING      MOCLDY    -6 -11  77 CALM      30.21S
LEADVILLE      PTCLDY    -6 -14  68 NE7       30.05F WCI -20
MONARCH PASS   CLOUDY    -4  -8  84 MISG      30.02F
SALIDA         PTCLDY    17   1  50 W7        30.18S WCI   7
SUNLIGHT       CLOUDY   N/A N/A N/A CALM      30.07F
WILKERSON PASS PTCLDY     5 -11  47 NW12G18   29.96F WCI -11
$$

COZ069>075-280600-
...SAN LUIS VALLEY/SANGRE DE CRISTO MOUNTAINS...

CITY           SKY/WX    TMP DP  RH WIND       PRES   REMARKS
ALAMOSA        MOCLDY    -3  -8  79 CALM      30.19R
LA VETA PASS   NOT AVBL
SAGUACHE       NOT AVBL
$$

COZ035-036-038>040-280600-
...NORTHERN COLORADO FRONT RANGE...

CITY           SKY/WX    TMP DP  RH WIND       PRES   REMARKS
DENVER INTL AP MOCLDY    12   7  80 W6        30.05R WCI   3
DMNS CITY PARK   N/A     12   8  86 NE2       30.06S
AURORA         PTCLDY    13   5  69 S7        30.05S WCI   3
FRONT RANGE AP MOCLDY    14   9  79 S14       30.05S WCI  -1
ERIE MUNI ARPT   N/A      3  -1  84 CALM      30.07S
BOULDER MUN AP MOCLDY    12  12 100 CALM      30.06S
CENTENNIAL     MOCLDY    15   4  61 SE7       30.03S WCI   5
BROOMFIELD     PTCLDY    10   7  85 CALM      30.04F
FORT COLLINS   PTCLDY     9   5  85 CALM      30.07S
LONGMONT       LGT SNOW   4  -1  81 W6        30.10S VSB 1   WCI  -7
$$

COZ041-046-047-076>085-087-088-280600-
...PIKES PEAK/PALMER DIVIDE AND SOUTHERN FOOTHILLS...

CITY           SKY/WX    TMP DP  RH WIND       PRES   REMARKS
COLO. SPRINGS  PTCLDY    12   5  73 N6        30.06S WCI   3
A. F. ACADEMY  PTCLDY     6   0  77 N9        30.04S WCI  -8
ELLICOTT       NOT AVBL
FALCON         PTCLDY     8   2  78 NW8       30.03F WCI  -5
FORT CARSON    PTCLDY    12   8  81 NW7       30.05S WCI   2
LIMON          CLEAR      2  -1  88 N8        30.08S WCI -12
MONUMENT HILL  PTCLDY     9   3  78 S9        30.00F WCI  -5
TRINIDAD       CLEAR      5   0  79 W9        30.09S WCI  -9
$$

COZ042>045-048>051-090-091-280600-
...NORTHEAST COLORADO...

CITY           SKY/WX    TMP DP  RH WIND       PRES   REMARKS
GREELEY ARPT   MOCLDY    -2  -9  71 CALM      30.07S
AKRON          PTCLDY    17   9  70 SW15      30.07F WCI   2
BURLINGTON     PTCLDY    10   5  80 W8        30.13S WCI  -2
WRAY           PTCLDY    11   6  78 W10       30.13S WCI  -2
STERLING       PTCLDY     0  -6  78 CALM      30.11S
HOLYOKE        PTCLDY     5   0  78 W8        30.12F WCI  -8
FORT MORGAN    PTCLDY     7   4  86 CALM      30.09S
$$

COZ086-089-092>099-280600-
...SOUTHEAST COLORADO...

CITY           SKY/WX    TMP DP  RH WIND       PRES   REMARKS
PUEBLO         PTCLDY    14   9  80 W3        30.11S
LA JUNTA       PTCLDY    15  10  80 S5        30.13F WCI   8
LAMAR          CLEAR     11   7  84 CALM      30.16S
SPRINGFIELD      N/A     15  12  88 SW5       30.13F WCI   8
$$



USA.gov is the U.S. government's official web portal to all federal, state and local government web resources and services.